Torna al catalogo

SL-8 DEB

AttivoLEO
NORAD 22843·DEBRIS·🇷🇺 Russia

Lanciato Feb 12, 1991 da Plesetsk Cosmodrome

Loading…

Prossimi Passaggi (prossime 24 ore)

TLE

AggiornatoSource: Space-Track

Epoca: Sep 13, 2026, 00:27 UTC

1 22843U 91009CN  26256.01920840  .00000283  00000-0  20330-2 0  9996
2 22843  74.0185 263.6303 0242569 314.8860  73.2576 12.39881286503744

Traccia SL-8 DEB in tempo reale con AllMySat

Download on the App Store